Location: Luxembourg
(49.6117°N, 6.1300°E)
Time: 06:21:13
(UTC+01:00)

Envisat - Pass Details

Date: 24 January 2019
Orbit: 764 x 766 km, 98.2° (Epoch: 16 February)

Event Time Altitude Azimuth Distance (km) Brightness Sun altitude
Rises 18:14:36 0° 137° (SE) 3,224 6.0 -9.3°
Reaches altitude 10° 18:17:03 10° 129° (SE) 2,302 5.2 -9.7°
Maximum altitude 18:21:37 35° 65° (ENE) 1,230 3.6 -10.4°
Drops below altitude 10° 18:26:12 10° 1° (N) 2,315 5.3 -11.1°
Sets 18:28:40 0° 353° (N) 3,246 6.2 -11.5°
